Plum, TX

2:11 PM CST on February 26, 2017 (GMT -0600)
La Grange

Weather History for K3T5 - October, 2013

Change the Weather History Date:

Friday, October 4, 2013

  Actual Average (KAUS) Record (KAUS)
Temperature  
Mean Temperature 82 °F -  
Max Temperature 92 °F 82 °F 95 °F (1956)
Min Temperature 73 °F 60 °F 45 °F (2010)
Cooling Degree Days 18    
Growing Degree Days 32 (Base 50)    
Moisture  
Dew Point 72 °F    
Average Humidity 74    
Maximum Humidity 92    
Minimum Humidity 49    
Precipitation  
Precipitation 0.00 in - - ()
Sea Level Pressure  
Sea Level Pressure 29.88 in    
Wind  
Wind Speed 5 mph (South)    
Max Wind Speed 13 mph    
Max Gust Speed 17 mph    
Visibility 10 miles    
Events      
Averages and records for this station are not official NWS values.
T = Trace of Precipitation, MM = Missing Value Source: NWS Daily Summary

Daily Weather History Graph

Daily Weather History Graph

Search for Another Location

Airport or City:

Trip Planner

Search our weather history database for the weather conditions in past years. The results will help you decide how hot, cold, wet, or windy it might be!

Date:

Astronomy

Oct. 04, 2013 Rise Set
Actual Time 7:23 AM CDT 7:09 PM CDT
Civil Twilight 6:59 AM CDT 7:33 PM CDT
Nautical Twilight 6:31 AM CDT 8:00 PM CDT
Astronomical Twilight 6:03 AM CDT 8:28 PM CDT
Moon 6:59 AM CDT (10/4) 6:55 PM CDT (10/4)
Length of Visible Light 12h 34m
Length of Day
11h 46m
Waning Crescent, 0% of the Moon is Illuminated
Oct 4
Waning Crescent
Oct 4
New
Oct 11
First Quarter
Oct 18
Full
Oct 26
Last Quarter

Hourly Weather History & Observations

Time (CDT) Temp. Heat Index Dew Point Humidity Pressure Visibility Wind Dir Wind Speed Gust Speed Precip Events Conditions
12:15 AM 77.5 °F - 74.3 °F 90% 29.90 in 10.0 mi SSE 4.6 mph - N/A   Scattered Clouds
12:35 AM 77.5 °F - 74.3 °F 90% 29.89 in 10.0 mi SSE 5.8 mph - N/A   Clear
12:55 AM 77.0 °F - 73.9 °F 90% 29.89 in 10.0 mi South 5.8 mph - N/A   Clear
1:15 AM 76.8 °F - 73.8 °F 90% 29.89 in 10.0 mi SSE 4.6 mph - N/A   Clear
1:35 AM 76.3 °F - 73.6 °F 91% 29.89 in 10.0 mi South 3.5 mph - N/A   Clear
1:55 AM 76.1 °F - 73.4 °F 91% 29.89 in 10.0 mi Calm Calm - N/A   Clear
2:15 AM 75.2 °F - 72.7 °F 92% 29.89 in 10.0 mi Calm Calm - N/A   Clear
2:35 AM 75.4 °F - 72.9 °F 92% 29.89 in 10.0 mi Calm Calm - N/A   Clear
2:55 AM 74.8 °F - 72.5 °F 92% 29.89 in 10.0 mi Calm Calm - N/A   Clear
3:15 AM 74.8 °F - 72.5 °F 92% 29.89 in 10.0 mi Calm Calm - N/A   Clear
3:35 AM 74.8 °F - 72.5 °F 92% 29.89 in 10.0 mi Calm Calm - N/A   Clear
3:55 AM 74.8 °F - 72.5 °F 92% 29.88 in 10.0 mi Calm Calm - N/A   Clear
4:15 AM 74.7 °F - 72.1 °F 92% 29.88 in 7.0 mi Calm Calm - N/A   Clear
4:35 AM 74.3 °F - 71.8 °F 92% 29.88 in 7.0 mi Calm Calm - N/A   Clear
4:55 AM 74.3 °F - 71.6 °F 91% 29.88 in 7.0 mi Calm Calm - N/A   Clear
5:15 AM 74.3 °F - 71.8 °F 92% 29.89 in 7.0 mi Calm Calm - N/A   Scattered Clouds
5:35 AM 74.1 °F - 71.4 °F 91% 29.89 in 7.0 mi Calm Calm - N/A   Clear
5:55 AM 73.9 °F - 71.2 °F 91% 29.89 in 7.0 mi Calm Calm - N/A   Clear
6:15 AM 73.6 °F - 70.9 °F 91% 29.89 in 5.0 mi Calm Calm - N/A   Clear
6:35 AM 73.6 °F - 70.7 °F 91% 29.90 in 7.0 mi Calm Calm - N/A   Clear
6:55 AM 73.6 °F - 70.7 °F 91% 29.90 in 5.0 mi Calm Calm - N/A   Clear
7:15 AM 73.6 °F - 70.7 °F 91% 29.90 in 7.0 mi Calm Calm - N/A   Clear
7:35 AM 74.5 °F - 71.6 °F 91% 29.90 in 10.0 mi Calm Calm - N/A   Clear
7:55 AM 74.8 °F - 71.6 °F 90% 29.90 in 10.0 mi Calm Calm - N/A   Clear
8:15 AM 75.7 °F - 72.1 °F 89% 29.90 in 10.0 mi SSE 3.5 mph - N/A   Clear
8:35 AM 76.6 °F - 72.5 °F 87% 29.90 in 10.0 mi SSE 5.8 mph - N/A   Clear
8:55 AM 77.5 °F - 72.7 °F 85% 29.91 in 10.0 mi SSE 4.6 mph - N/A   Clear
9:15 AM 78.8 °F - 72.5 °F 81% 29.92 in 10.0 mi SSE 4.6 mph - N/A   Clear
9:35 AM 80.6 °F 85.0 °F 72.7 °F 77% 29.92 in 10.0 mi South 6.9 mph - N/A   Clear
9:55 AM 82.0 °F 86.7 °F 71.6 °F 71% 29.92 in 10.0 mi South 10.4 mph - N/A   Scattered Clouds
10:15 AM 81.9 °F 86.2 °F 71.2 °F 70% 29.92 in 10.0 mi South 8.1 mph - N/A   Scattered Clouds
10:35 AM 83.3 °F 87.9 °F 70.7 °F 66% 29.92 in 10.0 mi South 8.1 mph - N/A   Mostly Cloudy
10:55 AM 85.3 °F 90.4 °F 70.7 °F 62% 29.92 in 10.0 mi South 9.2 mph - N/A   Mostly Cloudy
11:15 AM 85.3 °F 90.1 °F 70.3 °F 61% 29.91 in 10.0 mi South 6.9 mph - N/A   Mostly Cloudy
11:35 AM 86.7 °F 91.4 °F 70.0 °F 57% 29.91 in 10.0 mi South 8.1 mph - N/A   Scattered Clouds
11:55 AM 86.0 °F 90.7 °F 70.3 °F 59% 29.90 in 10.0 mi SSW 8.1 mph - N/A   Scattered Clouds
12:15 PM 87.6 °F 93.1 °F 70.9 °F 57% 29.91 in 10.0 mi SW 6.9 mph - N/A   Scattered Clouds
12:35 PM 87.6 °F 92.7 °F 70.3 °F 56% 29.90 in 10.0 mi South 6.9 mph - N/A   Clear
12:55 PM 88.5 °F 93.5 °F 70.0 °F 54% 29.89 in 10.0 mi SSE 9.2 mph - N/A   Scattered Clouds
1:15 PM 89.1 °F 94.1 °F 70.0 °F 53% 29.88 in 10.0 mi SW 9.2 mph - N/A   Scattered Clouds
1:35 PM 90.0 °F 95.4 °F 70.0 °F 52% 29.87 in 10.0 mi South 12.7 mph 16.1 mph N/A   Scattered Clouds
1:55 PM 90.0 °F 95.4 °F 70.2 °F 52% 29.86 in 10.0 mi South 10.4 mph - N/A   Scattered Clouds
2:15 PM 91.4 °F 96.8 °F 69.8 °F 49% 29.86 in 10.0 mi South 11.5 mph - N/A   Scattered Clouds
2:35 PM 91.6 °F 97.7 °F 70.3 °F 50% 29.85 in 10.0 mi South 10.4 mph - N/A   Scattered Clouds
2:55 PM 92.3 °F 98.6 °F 70.3 °F 49% 29.85 in 10.0 mi South 10.4 mph - N/A   Scattered Clouds
3:15 PM 91.9 °F 99.0 °F 71.2 °F 51% 29.84 in 10.0 mi South 10.4 mph - N/A   Scattered Clouds
3:35 PM 92.3 °F 98.6 °F 70.7 °F 49% 29.84 in 10.0 mi South 6.9 mph 16.1 mph N/A   Scattered Clouds
3:55 PM 91.8 °F 98.6 °F 71.1 °F 51% 29.84 in 10.0 mi SE 9.2 mph 17.3 mph N/A   Scattered Clouds
4:15 PM 91.8 °F 98.6 °F 71.4 °F 51% 29.83 in 10.0 mi SSE 10.4 mph - N/A   Scattered Clouds
4:35 PM 91.4 °F 97.8 °F 71.2 °F 51% 29.83 in 10.0 mi SSE 10.4 mph 16.1 mph N/A   Scattered Clouds
4:55 PM 91.4 °F 97.8 °F 70.9 °F 51% 29.83 in 10.0 mi SSE 8.1 mph - N/A   Scattered Clouds
5:15 PM 91.4 °F 99.5 °F 72.5 °F 54% 29.83 in 10.0 mi SSE 11.5 mph - N/A   Scattered Clouds
5:35 PM 91.0 °F 99.3 °F 72.7 °F 55% 29.83 in 10.0 mi SSE 8.1 mph 16.1 mph N/A   Scattered Clouds
5:55 PM 90.7 °F 98.5 °F 72.5 °F 55% 29.83 in 10.0 mi SSE 11.5 mph 16.1 mph N/A   Clear
6:15 PM 90.1 °F 97.8 °F 72.5 °F 56% 29.84 in 10.0 mi SSE 10.4 mph - N/A   Scattered Clouds
6:35 PM 89.1 °F 96.5 °F 72.7 °F 58% 29.84 in 10.0 mi SSE 9.2 mph - N/A   Scattered Clouds
6:55 PM 87.8 °F 95.2 °F 72.7 °F 61% 29.85 in 10.0 mi SSE 9.2 mph - N/A   Clear
7:15 PM 86.5 °F 94.2 °F 73.4 °F 65% 29.85 in 10.0 mi SSE 6.9 mph - N/A   Clear
7:35 PM 85.6 °F 93.0 °F 73.8 °F 67% 29.86 in 10.0 mi SSE 9.2 mph - N/A   Clear
7:55 PM 85.3 °F 92.2 °F 73.4 °F 67% 29.86 in 10.0 mi SSE 8.1 mph - N/A   Clear
8:15 PM 84.4 °F 91.0 °F 73.4 °F 69% 29.87 in 10.0 mi SSE 8.1 mph - N/A   Clear
8:35 PM 83.5 °F 90.0 °F 73.8 °F 72% 29.88 in 10.0 mi South 8.1 mph - N/A   Clear
8:55 PM 82.2 °F 88.0 °F 73.8 °F 75% 29.89 in 10.0 mi SSE 4.6 mph - N/A   Clear
9:15 PM 81.5 °F 87.2 °F 73.9 °F 78% 29.90 in 10.0 mi SSE 4.6 mph - N/A   Clear
9:35 PM 80.6 °F 85.5 °F 73.8 °F 80% 29.90 in 10.0 mi South 6.9 mph - N/A   Clear
9:55 PM 80.2 °F 84.9 °F 73.8 °F 81% 29.90 in 10.0 mi South 5.8 mph - N/A   Clear
10:15 PM 79.9 °F - 73.8 °F 81% 29.91 in 10.0 mi SSE 4.6 mph - N/A   Clear
10:35 PM 78.8 °F - 73.8 °F 84% 29.91 in 10.0 mi SSE 4.6 mph - N/A   Clear
10:55 PM 78.4 °F - 73.9 °F 86% 29.91 in 10.0 mi SSE 4.6 mph - N/A   Clear
11:15 PM 77.5 °F - 73.4 °F 87% 29.91 in 10.0 mi South 3.5 mph - N/A   Clear
11:35 PM 76.6 °F - 73.0 °F 89% 29.91 in 10.0 mi South 3.5 mph - N/A   Clear
11:55 PM 76.3 °F - 72.9 °F 89% 29.91 in 10.0 mi South 3.5 mph - N/A   Clear